[[{"header":{"parameterUnit":"m.s-1","parameterCategory":1,"la1":30.2991,"la2":30.254,"lo1":-89.0895,"lo2":-89.0444,"dy":0.0017,"dx":0.0017,"nx":28,"ny":28,"refTime":"2025-05-31T21:00:00:Z","depth":0,"parameterNumber":2,"parameterNumberName":"U-component_of_WINDS"},"data":[0,0,0,0,0,0,0,0,0,0,0,0,0,0,0,0,0,0,0,0,0,0,0,0,0,0,0,0,0,0,0,0,0,0,0,0,0,0,0,0,0,0,0,0,0,0,0,0,0,0,0,0,0,0,0,0,0,0,0.9384,0.9384,0,0.9379,0.9378,0.9378,0.9323,0.9322,0.932,0.9319,0.9314,0.9315,0.9316,0,0,0,0,0,0,0,0,0,0,0,0,0,0.9347,0.9348,0.9384,0.9384,0.9384,0.9379,0.9378,0.9378,0.9323,0.9322,0.932,0.9318,0.9314,0.9315,0.9316,0,0,0,0,0,0,0,0,0,0,0,0,0,0.9355,0.9349,0.9384,0.9356,0.9353,0.9379,0.9378,0.9378,0.9324,0.9322,0.932,0.9318,0.9313,0.9315,0.9317,0.9369,0,0,0.9322,0.9323,0,0,0,0,0,0,0,0,0.9354,0.9356,0.936,0.9357,0.9355,0.9349,0.9364,0.9375,0.9324,0.9335,0.9319,0.9317,0.9328,0.9328,0.9332,0.9369,0.9369,0.9322,0.9323,0.9324,0.9324,0,0,0,0,0,0,0,0.9354,0.9356,0.9382,0.936,0.9357,0.9344,0.9342,0.9366,0.9343,0.9334,0.933,0.933,0.9326,0.933,0.9331,0.9369,0.9322,0.9324,0.9325,0.9325,0.9451,0.9453,0,0,0,0,0,0,0.9357,0.9356,0.9382,0.9381,0.9349,0.9346,0.9345,0.9353,0.9343,0.9339,0.9332,0.9327,0.9328,0.9329,0.9331,0.9393,0.9324,0.9326,0.9327,0.9448,0.9451,0.9454,0,0,0,0,0,0,0.9357,0.936,0.9382,0.9368,0.9369,0.9349,0.9359,0.9354,0.9358,0.9341,0.9337,0.934,0.9326,0.9328,0.936,0.9392,0.9326,0.9328,0.9446,0.9449,0.9452,0.9517,0,0,0,0,0,0,0.9356,0.936,0.9379,0.9369,0.937,0.9412,0.9361,0.9356,0.9361,0.9356,0.9348,0.9344,0.9325,0.9358,0.9362,0.9393,0.9329,0.9443,0.9447,0.9451,0.9512,0.9522,0.9531,0,0,0,0,0,0.9355,0.9397,0.9381,0.9384,0.9394,0.9413,0.9415,0.9391,0.9364,0.9384,0.9373,0.9345,0.9388,0.9362,0.9366,0.9398,0.9441,0.9446,0.9451,0.9507,0.952,0.953,0,0,0,0,0,0,0.9412,0.9395,0.9377,0.9417,0.9417,0.9404,0.9428,0.9405,0.9413,0.9407,0.9378,0.9376,0.9414,0.9409,0.938,0.9449,0.9409,0.9416,0.9451,0.9463,0.9472,0.9473,0.9331,0,0,0,0,0,0.9429,0.9446,0.9431,0.9468,0.9469,0.9449,0.9456,0.9438,0.9437,0.9437,0.9428,0.9429,0.9443,0.9452,0.9463,0.9511,0.9509,0.9535,0.9544,0.9552,0.9558,0.9584,0.9596,0.9471,0.9471,0.947,0,0,0.9465,0.9458,0.947,0.9479,0.9477,0.9496,0.9449,0.947,0.9484,0.944,0.9471,0.9465,0.9463,0.9504,0.9521,0.9501,0.9592,0.9559,0.9565,0.9567,0.9591,0.9603,0.9613,0.9474,0.9473,0.9473,0,0,0.954,0.9536,0.9567,0.9567,0.9565,0.9551,0.9559,0.955,0.9544,0.9574,0.9542,0.9559,0.9582,0.9583,0.9587,0.9665,0.964,0.9669,0.9719,0.9745,0.9755,0.9764,0.9793,0.9804,0.9675,0.9675,0.9676,0,0.9585,0.9612,0.9586,0.9611,0.9616,0.9578,0.961,0.961,0.9612,0.9617,0.9595,0.9625,0.9621,0.9662,0.9681,0.9685,0.9694,0.967,0.9756,0.9764,0.9772,0.98,0.981,0.9679,0.9679,0.9678,0.9678,0,0.9668,0.9688,0.9713,0.9717,0.9725,0.9753,0.9732,0.9744,0.9726,0.9715,0.9747,0.9742,0.9752,0.976,0.9743,0.98,0.9787,0.9761,0.972,0.9788,0.9814,0.9824,0.9684,0.9683,0.9682,0.9681,0,0,0.9778,0.9769,0.9779,0.9781,0.9777,0.9791,0.9818,0.9829,0.984,0.9843,0.9866,0.9888,0.9864,0.9868,0.985,0.9873,0.9937,0.9843,0.9843,0.9862,1.0002,1.0023,1.0035,0.992,0.9922,0.9924,1.0002,0,0.9852,0.9898,0.9876,0.9925,0.9943,0.9908,0.9932,0.9932,0.9923,0.9938,0.9928,0.9945,0.9911,0.9913,0.9934,0.9925,0.9965,0.9919,0.9942,0.9944,0.9945,1.0048,1.007,1.0144,1.0012,1.0014,1.0015,0,0.9944,0.9952,1.0002,0.9997,1.0004,1.0025,1.0034,1.0049,1.0049,1.0041,1.0047,1.0024,1.0052,1.0012,1.0049,1.0018,1.0027,1.0024,1.0026,1.0028,0.9984,1.0054,1.0167,1.0179,1.003,1.0029,1.0028,0,1.0021,1.0044,1.0078,1.0081,1.0074,1.0091,1.0089,1.0087,1.0096,1.0104,1.011,1.0121,1.0127,1.0136,1.0118,1.009,1.0159,1.0117,1.0154,1.0155,1.0171,1.017,1.0288,1.0175,1.0174,1.0174,1.0174,0,1.0106,1.0139,1.0113,1.0134,1.017,1.0146,1.0182,1.0176,1.0176,1.0195,1.0165,1.0184,1.0158,1.0175,1.0161,1.0195,1.0198,1.0193,1.0189,1.0197,1.0198,1.0202,1.0197,1.0177,1.0176,1.0176,1.0175,0,1.0199,1.0183,1.0217,1.0209,1.0208,1.0235,1.0228,1.0248,1.0237,1.0263,1.0268,1.0251,1.027,1.0252,1.027,1.026,1.0307,1.0295,1.0307,1.0304,1.0343,1.034,1.0469,1.0485,1.036,1.0362,1.0363,0,1.0255,1.0279,1.0274,1.0286,1.0286,1.0304,1.0313,1.029,1.0301,1.0305,1.0324,1.034,1.0352,1.0384,1.0374,1.0388,1.0376,1.0421,1.0378,1.0386,1.0379,1.0378,1.0381,1.043,1.0431,1.0432,1.0433,0,1.0356,1.0347,1.0361,1.0373,1.0385,1.0393,1.0399,1.041,1.0387,1.0401,1.042,1.0429,1.0448,1.0465,1.0476,1.0474,1.0451,1.0447,1.0456,1.0465,1.0471,1.047,1.0332,1.0444,1.0443,1.0442,1.0441,1.0441,1.0433,1.0454,1.0454,1.0471,1.0474,1.048,1.0499,1.0491,1.0507,1.052,1.0506,1.053,1.0531,1.0544,1.0545,1.0564,1.0546,1.0559,1.0563,1.0567,1.0573,1.0468,1.0566,1.0566,1.0565,1.0565,1.0565,0,1.0534,1.0533,1.0549,1.0559,1.0573,1.0549,1.0555,1.0569,1.059,1.0593,1.0606,1.0629,1.0646,1.0638,1.0653,1.067,1.0659,1.0674,1.0673,1.0674,1.0588,1.0579,1.0683,1.0683,1.0683,1.0683,1.0683,1.0683,1.0588,1.0623,1.0615,1.0651,1.0649,1.0673,1.0679,1.0685,1.0688,1.0715,1.0729,1.0724,1.0723,1.0738,1.0753,1.075,1.0758,1.0777,1.0771,1.0691,1.068,1.0669,1.066,1.0779,1.0779,1.0855,1.0856,1.0856]},{"header":{"parameterUnit":"m.s-1","parameterCategory":1,"la1":30.2991,"la2":30.254,"lo1":-89.0895,"lo2":-89.0444,"dy":0.0017,"dx":0.0017,"nx":28,"ny":28,"refTime":"2025-05-31T21:00:00:Z","depth":0,"parameterNumber":3,"parameterNumberName":"V-component_of_WINDS"},"data":[0,0,0,0,0,0,0,0,0,0,0,0,0,0,0,0,0,0,0,0,0,0,0,0,0,0,0,0,0,0,0,0,0,0,0,0,0,0,0,0,0,0,0,0,0,0,0,0,0,0,0,0,0,0,0,0,0,0,-2.0831,-2.0832,0,-2.0893,-2.0893,-2.0894,-2.0903,-2.0903,-2.0902,-2.0901,-2.0961,-2.0963,-2.0965,0,0,0,0,0,0,0,0,0,0,0,0,0,-2.0716,-2.0718,-2.0831,-2.0832,-2.0832,-2.0893,-2.0893,-2.0894,-2.0903,-2.0902,-2.0902,-2.0901,-2.096,-2.0962,-2.0965,0,0,0,0,0,0,0,0,0,0,0,0,0,-2.0771,-2.0719,-2.0831,-2.0844,-2.0846,-2.0892,-2.0894,-2.0895,-2.0903,-2.0902,-2.0902,-2.0901,-2.0959,-2.0962,-2.0965,-2.1001,0,0,-2.0975,-2.0976,0,0,0,0,0,0,0,0,-2.0768,-2.0775,-2.0841,-2.0843,-2.0846,-2.0889,-2.0875,-2.093,-2.0904,-2.0881,-2.0901,-2.09,-2.0937,-2.0942,-2.0955,-2.1004,-2.1007,-2.0975,-2.0977,-2.0978,-2.0979,0,0,0,0,0,0,0,-2.0764,-2.0772,-2.0855,-2.0842,-2.0845,-2.0846,-2.0853,-2.0885,-2.0913,-2.0883,-2.0884,-2.0892,-2.0938,-2.0952,-2.0957,-2.1007,-2.0975,-2.0978,-2.098,-2.0981,-2.1087,-2.1088,0,0,0,0,0,0,-2.0758,-2.0769,-2.0853,-2.0857,-2.0804,-2.0848,-2.0856,-2.0876,-2.0913,-2.0918,-2.0892,-2.0892,-2.0947,-2.0953,-2.0959,-2.1003,-2.0978,-2.0981,-2.0983,-2.1086,-2.1087,-2.1088,0,0,0,0,0,0,-2.0756,-2.0766,-2.0851,-2.0813,-2.0824,-2.0851,-2.0874,-2.0878,-2.0892,-2.092,-2.0924,-2.0902,-2.0947,-2.0955,-2.0991,-2.1005,-2.0983,-2.0985,-2.1085,-2.1087,-2.1088,-2.1091,0,0,0,0,0,0,-2.0752,-2.0765,-2.078,-2.0814,-2.0826,-2.0883,-2.0875,-2.088,-2.0898,-2.0898,-2.093,-2.0934,-2.0947,-2.0986,-2.0994,-2.1009,-2.0988,-2.1084,-2.1086,-2.1088,-2.1089,-2.1092,-2.1094,0,0,0,0,0,-2.0748,-2.0777,-2.078,-2.079,-2.0846,-2.0884,-2.0891,-2.0906,-2.0899,-2.0913,-2.0931,-2.0933,-2.1002,-2.099,-2.0998,-2.1015,-2.1083,-2.1085,-2.1087,-2.1088,-2.1092,-2.1094,0,0,0,0,0,0,-2.0743,-2.0782,-2.0786,-2.0827,-2.0852,-2.0885,-2.0904,-2.0909,-2.0935,-2.0934,-2.095,-2.0957,-2.0992,-2.1007,-2.0992,-2.1051,-2.1042,-2.1046,-2.104,-2.1043,-2.1045,-2.104,-2.0991,0,0,0,0,0,-2.0746,-2.0775,-2.0808,-2.0841,-2.0853,-2.0876,-2.0893,-2.0903,-2.0929,-2.0939,-2.0959,-2.0983,-2.101,-2.1028,-2.1054,-2.1092,-2.1098,-2.1107,-2.111,-2.1112,-2.1114,-2.1134,-2.1138,-2.1095,-2.1095,-2.1095,0,0,-2.0754,-2.0779,-2.0796,-2.084,-2.0861,-2.0888,-2.0885,-2.0915,-2.0935,-2.0943,-2.0979,-2.0994,-2.1022,-2.1059,-2.1076,-2.1072,-2.1128,-2.1114,-2.1116,-2.1117,-2.1137,-2.1141,-2.1145,-2.1097,-2.1097,-2.1096,0,0,-2.0782,-2.0805,-2.0834,-2.0855,-2.0887,-2.0902,-2.0909,-2.0942,-2.0953,-2.0989,-2.0995,-2.1019,-2.1066,-2.1085,-2.1101,-2.1136,-2.1138,-2.1144,-2.1156,-2.1175,-2.1179,-2.1182,-2.1193,-2.1197,-2.1147,-2.1147,-2.1147,0,-2.0787,-2.0831,-2.0848,-2.0878,-2.0897,-2.0907,-2.0936,-2.0955,-2.0993,-2.1005,-2.1001,-2.1059,-2.1078,-2.1119,-2.1128,-2.1141,-2.1148,-2.114,-2.1177,-2.118,-2.1183,-2.1194,-2.1198,-2.1147,-2.1147,-2.1147,-2.1147,0,-2.0834,-2.0865,-2.0885,-2.0923,-2.0943,-2.0973,-2.0993,-2.1012,-2.102,-2.1035,-2.1071,-2.1095,-2.1126,-2.1137,-2.1144,-2.1179,-2.1175,-2.1174,-2.1165,-2.1187,-2.1198,-2.1202,-2.1148,-2.1148,-2.1148,-2.1148,0,0,-2.086,-2.0908,-2.0914,-2.0931,-2.0967,-2.099,-2.1019,-2.1051,-2.1066,-2.1092,-2.1116,-2.1155,-2.1154,-2.1172,-2.1182,-2.1199,-2.1224,-2.1195,-2.1196,-2.1198,-2.1261,-2.1261,-2.1266,-2.1226,-2.1227,-2.1228,-2.1258,0,-2.0891,-2.0945,-2.0961,-2.1006,-2.1033,-2.1043,-2.1068,-2.1092,-2.1107,-2.1131,-2.1147,-2.1174,-2.1172,-2.1182,-2.12,-2.1217,-2.1236,-2.1215,-2.1246,-2.1247,-2.1238,-2.1271,-2.1272,-2.1299,-2.1263,-2.1263,-2.1264,0,-2.0934,-2.0962,-2.1009,-2.1041,-2.1053,-2.1076,-2.1106,-2.113,-2.1156,-2.1166,-2.1186,-2.1195,-2.1224,-2.1215,-2.1254,-2.1239,-2.1253,-2.1264,-2.1265,-2.1267,-2.1256,-2.1273,-2.1309,-2.1312,-2.1271,-2.127,-2.127,0,-2.0946,-2.0995,-2.103,-2.1044,-2.1083,-2.1098,-2.1115,-2.1141,-2.1158,-2.1184,-2.1196,-2.1224,-2.1239,-2.1261,-2.1276,-2.1268,-2.1314,-2.1306,-2.1321,-2.132,-2.1329,-2.1328,-2.1366,-2.134,-2.134,-2.134,-2.134,0,-2.0978,-2.1006,-2.1036,-2.1057,-2.1088,-2.1107,-2.1137,-2.1154,-2.1177,-2.12,-2.1211,-2.1232,-2.1252,-2.1275,-2.1287,-2.1317,-2.1324,-2.1332,-2.1334,-2.133,-2.1329,-2.1338,-2.1336,-2.1341,-2.1341,-2.1341,-2.1341,0,-2.0996,-2.1017,-2.1055,-2.1089,-2.1098,-2.112,-2.1148,-2.1168,-2.1184,-2.1213,-2.1221,-2.1245,-2.1273,-2.1291,-2.1327,-2.1335,-2.1367,-2.137,-2.1358,-2.1359,-2.1373,-2.1371,-2.1417,-2.1424,-2.1395,-2.1395,-2.1395,0,-2.1014,-2.1036,-2.1073,-2.109,-2.1107,-2.1134,-2.1153,-2.1172,-2.119,-2.1222,-2.1238,-2.1268,-2.1292,-2.1336,-2.1356,-2.1383,-2.1385,-2.14,-2.1389,-2.1384,-2.1384,-2.1382,-2.1383,-2.1401,-2.1401,-2.1401,-2.1401,0,-2.1044,-2.1054,-2.1081,-2.1112,-2.1134,-2.1159,-2.1183,-2.1196,-2.1219,-2.1239,-2.1269,-2.1288,-2.1325,-2.1353,-2.1382,-2.1397,-2.1402,-2.1405,-2.1409,-2.1405,-2.1397,-2.14,-2.1362,-2.1403,-2.1403,-2.1403,-2.1403,-2.1403,-2.1062,-2.1082,-2.1111,-2.114,-2.1161,-2.1184,-2.1205,-2.1223,-2.1249,-2.1281,-2.1291,-2.1321,-2.1347,-2.1386,-2.1402,-2.1425,-2.1423,-2.143,-2.1432,-2.1433,-2.1432,-2.1394,-2.1431,-2.1431,-2.1431,-2.143,-2.143,0,-2.1092,-2.1111,-2.1138,-2.1173,-2.1196,-2.1201,-2.1228,-2.1247,-2.1274,-2.1298,-2.1322,-2.1356,-2.1383,-2.1405,-2.1433,-2.1447,-2.145,-2.1454,-2.1452,-2.1455,-2.1433,-2.1426,-2.1451,-2.1451,-2.1451,-2.1451,-2.1451,-2.1451,-2.1109,-2.1143,-2.1156,-2.12,-2.1218,-2.125,-2.1265,-2.1285,-2.1304,-2.1342,-2.1365,-2.138,-2.1403,-2.1433,-2.1458,-2.1463,-2.1472,-2.1475,-2.1481,-2.1459,-2.1457,-2.1455,-2.1448,-2.1477,-2.1477,-2.1501,-2.1501,-2.1502]}]]